Tracking 22454 objects as of 5-Mar-2021
HD Live streaming from Space Station
objects crossing your sky now

CZ-3C DEB

Track CZ-3C DEB now!


NORAD ID: 40864
Int'l Code: 2012-008AE
Perigee: 772.9 km
Apogee: 35,655.6 km
Inclination: 19.8 °
Period: 639.4 minutes
Semi major axis: 24585 km
RCS: Unknown
Launch date: February 24, 2012
Source: People's Republic of China (PRC)
Launch site: Xichang Space Center, China (XSC)

Note: This is SATELLITE DEBRIS
aabbcc
Your satellite tracking list
Your tracking list is empty




NASA's NSSDC Master Catalog

Two Line Element Set (TLE):
1 40864U 12008AE  17023.10082114 -.00001573 +00000-0 -53895-1 0  9992
2 40864 019.8280 138.4121 7094240 218.2016 059.9189 02.25211943016533
Source of the keplerian elements: AFSPC